[[{"header":{"parameterUnit":"m.s-1","parameterCategory":1,"la1":30.2991,"la2":30.254,"lo1":-89.0895,"lo2":-89.0444,"dy":0.0017,"dx":0.0017,"nx":28,"ny":28,"refTime":"2023-10-08T09:00:00:Z","depth":0,"parameterNumber":2,"parameterNumberName":"U-component_of_WINDS"},"data":[0,0,0,0,0,0,0,0,0,0,0,0,0,0,0,0,0,0,0,0,0,0,0,0,0,0,0,0,0,0,0,0,0,0,0,0,0,0,0,0,0,0,0,0,0,0,0,0,0,0,0,0,0,0,0,0,0,0,-1.7632,-1.7633,0,-1.7695,-1.7696,-1.7696,-1.7613,-1.761,-1.7607,-1.7605,-1.7671,-1.7675,-1.768,0,0,0,0,0,0,0,0,0,0,0,0,0,-1.7441,-1.7445,-1.7632,-1.7633,-1.7633,-1.7695,-1.7696,-1.7697,-1.7614,-1.761,-1.7607,-1.7603,-1.7669,-1.7675,-1.768,0,0,0,0,0,0,0,0,0,0,0,0,0,-1.7516,-1.7446,-1.7632,-1.76,-1.7597,-1.7695,-1.7696,-1.7697,-1.7615,-1.761,-1.7606,-1.7602,-1.7668,-1.7674,-1.7681,-1.7813,0,0,-1.7702,-1.7705,0,0,0,0,0,0,0,0,-1.7512,-1.7523,-1.7604,-1.7602,-1.76,-1.7642,-1.7652,-1.7736,-1.7616,-1.7608,-1.7605,-1.7599,-1.7665,-1.7672,-1.7693,-1.7816,-1.7819,-1.7702,-1.7707,-1.7709,-1.7711,0,0,0,0,0,0,0,-1.7507,-1.752,-1.7657,-1.7605,-1.7603,-1.7582,-1.7588,-1.7668,-1.7661,-1.7609,-1.7603,-1.7611,-1.7663,-1.7687,-1.7694,-1.782,-1.7702,-1.7708,-1.7713,-1.7715,-1.8055,-1.8059,0,0,0,0,0,0,-1.7505,-1.7516,-1.7655,-1.7659,-1.7544,-1.7589,-1.7596,-1.7633,-1.766,-1.766,-1.7615,-1.7607,-1.7678,-1.7686,-1.7696,-1.7854,-1.7709,-1.7716,-1.772,-1.805,-1.8056,-1.8061,0,0,0,0,0,0,-1.7501,-1.7518,-1.7652,-1.7586,-1.7601,-1.7597,-1.764,-1.7636,-1.766,-1.7665,-1.7663,-1.7641,-1.7674,-1.7687,-1.7785,-1.7855,-1.7719,-1.7725,-1.8044,-1.8052,-1.8058,-1.817,0,0,0,0,0,0,-1.7496,-1.7517,-1.7568,-1.7588,-1.7605,-1.774,-1.7644,-1.7641,-1.7672,-1.7663,-1.7689,-1.7689,-1.7672,-1.7775,-1.7792,-1.7862,-1.773,-1.8038,-1.8047,-1.8056,-1.816,-1.818,-1.8198,0,0,0,0,0,-1.749,-1.7597,-1.7571,-1.7588,-1.7668,-1.7744,-1.7754,-1.7732,-1.7678,-1.7729,-1.7731,-1.7688,-1.7844,-1.7786,-1.7804,-1.7877,-1.8033,-1.8045,-1.8055,-1.8152,-1.8176,-1.8197,0,0,0,0,0,0,-1.7586,-1.7599,-1.757,-1.7687,-1.7715,-1.773,-1.7794,-1.7759,-1.7803,-1.7793,-1.7763,-1.777,-1.7875,-1.7885,-1.782,-1.8007,-1.793,-1.7945,-1.7997,-1.802,-1.8039,-1.8036,-1.7736,0,0,0,0,0,-1.7621,-1.7682,-1.7689,-1.7792,-1.7807,-1.7798,-1.783,-1.7811,-1.7839,-1.7851,-1.786,-1.789,-1.7945,-1.7983,-1.8034,-1.816,-1.8165,-1.8219,-1.8238,-1.8253,-1.8268,-1.8336,-1.8361,-1.8097,-1.8097,-1.8097,0,0,-1.7694,-1.7708,-1.7749,-1.7811,-1.7831,-1.7895,-1.7809,-1.788,-1.7927,-1.7861,-1.7955,-1.7963,-1.7994,-1.8107,-1.8157,-1.8119,-1.8341,-1.8268,-1.828,-1.8286,-1.835,-1.8375,-1.8397,-1.8105,-1.8104,-1.8102,0,0,-1.786,-1.7876,-1.7964,-1.7985,-1.8015,-1.8008,-1.8029,-1.8049,-1.8052,-1.8145,-1.8097,-1.8152,-1.8248,-1.8272,-1.8297,-1.8471,-1.8433,-1.8488,-1.8587,-1.8654,-1.8675,-1.8693,-1.8757,-1.878,-1.8501,-1.8502,-1.8502,0,-1.7948,-1.8042,-1.8013,-1.8088,-1.8118,-1.8059,-1.8148,-1.817,-1.8216,-1.8238,-1.8193,-1.8313,-1.8329,-1.8447,-1.8489,-1.8511,-1.8535,-1.8487,-1.8674,-1.8692,-1.8709,-1.8769,-1.8793,-1.8508,-1.8508,-1.8507,-1.8506,0,-1.8148,-1.8214,-1.8281,-1.8327,-1.8363,-1.8444,-1.8429,-1.8469,-1.8445,-1.8443,-1.8538,-1.8555,-1.861,-1.8635,-1.8613,-1.8751,-1.8726,-1.8678,-1.8601,-1.8741,-1.8798,-1.8821,-1.8518,-1.8516,-1.8514,-1.8512,0,0,-1.838,-1.8407,-1.8433,-1.8453,-1.8481,-1.8532,-1.861,-1.8662,-1.8698,-1.873,-1.8797,-1.8878,-1.8834,-1.8862,-1.8842,-1.89,-1.9038,-1.8845,-1.8845,-1.8883,-1.9193,-1.9231,-1.9258,-1.9012,-1.9016,-1.9019,-1.9191,0,-1.8548,-1.8684,-1.866,-1.8793,-1.8854,-1.8798,-1.8866,-1.8891,-1.889,-1.8942,-1.8941,-1.9,-1.8936,-1.8953,-1.9008,-1.901,-1.9101,-1.8997,-1.9075,-1.9078,-1.9072,-1.9287,-1.9328,-1.9489,-1.9213,-1.9216,-1.9219,0,-1.8763,-1.8804,-1.8942,-1.896,-1.8985,-1.9047,-1.9093,-1.9143,-1.9169,-1.9164,-1.9196,-1.9164,-1.9242,-1.9161,-1.9269,-1.9199,-1.9228,-1.9234,-1.924,-1.9249,-1.9159,-1.9305,-1.954,-1.9565,-1.9253,-1.925,-1.9248,0,-1.8922,-1.901,-1.9105,-1.9123,-1.9146,-1.9191,-1.9203,-1.9225,-1.9258,-1.9298,-1.9319,-1.9367,-1.9394,-1.9432,-1.9415,-1.9357,-1.9527,-1.9444,-1.9527,-1.9527,-1.9568,-1.9566,-1.9814,-1.9582,-1.9582,-1.9581,-1.9581,0,-1.9114,-1.9201,-1.9176,-1.9235,-1.9331,-1.9302,-1.9398,-1.9403,-1.9423,-1.9482,-1.9435,-1.9492,-1.9463,-1.9517,-1.9503,-1.9596,-1.9608,-1.9607,-1.9603,-1.9613,-1.9614,-1.9635,-1.9625,-1.9588,-1.9586,-1.9585,-1.9584,0,-1.9309,-1.9295,-1.9395,-1.9408,-1.9413,-1.9484,-1.9495,-1.955,-1.9544,-1.9619,-1.9635,-1.9627,-1.9688,-1.9673,-1.974,-1.973,-1.9848,-1.9828,-1.984,-1.9836,-1.9921,-1.9914,-2.0193,-2.0229,-1.9971,-1.9974,-1.9976,0,-1.9434,-1.95,-1.952,-1.9556,-1.9571,-1.9629,-1.9662,-1.9635,-1.9671,-1.9706,-1.9757,-1.9813,-1.9858,-1.9958,-1.9958,-2.0009,-1.9992,-2.0086,-2.0,-2.0008,-1.9997,-1.9994,-2.0002,-2.0105,-2.0108,-2.011,-2.0112,0,-1.9658,-1.9648,-1.9697,-1.9745,-1.9785,-1.9821,-1.9853,-1.9884,-1.9859,-1.9903,-1.9964,-1.9999,-2.0066,-2.0124,-2.017,-2.0182,-2.0144,-2.0138,-2.0161,-2.0174,-2.0179,-2.018,-1.989,-2.0133,-2.0131,-2.013,-2.0128,-2.0128,-1.9824,-1.988,-1.9903,-1.996,-1.998,-2.001,-2.0063,-2.0063,-2.0114,-2.0167,-2.0147,-2.0219,-2.0242,-2.0301,-2.0318,-2.0373,-2.0338,-2.037,-2.0378,-2.0387,-2.0399,-2.0167,-2.0381,-2.0381,-2.038,-2.0379,-2.0379,0,-2.0048,-2.006,-2.0112,-2.0157,-2.0202,-2.0159,-2.0192,-2.0232,-2.0295,-2.032,-2.0364,-2.0435,-2.049,-2.0494,-2.0546,-2.0589,-2.0573,-2.0604,-2.0603,-2.0606,-2.0427,-2.0404,-2.0617,-2.0617,-2.0616,-2.0616,-2.0616,-2.0616,-2.017,-2.0264,-2.0256,-2.036,-2.037,-2.0439,-2.0462,-2.0489,-2.0509,-2.0591,-2.0636,-2.0637,-2.0654,-2.0707,-2.0755,-2.0755,-2.0777,-2.0816,-2.0809,-2.0642,-2.0619,-2.0596,-2.0575,-2.082,-2.082,-2.0984,-2.0986,-2.0987]},{"header":{"parameterUnit":"m.s-1","parameterCategory":1,"la1":30.2991,"la2":30.254,"lo1":-89.0895,"lo2":-89.0444,"dy":0.0017,"dx":0.0017,"nx":28,"ny":28,"refTime":"2023-10-08T09:00:00:Z","depth":0,"parameterNumber":3,"parameterNumberName":"V-component_of_WINDS"},"data":[0,0,0,0,0,0,0,0,0,0,0,0,0,0,0,0,0,0,0,0,0,0,0,0,0,0,0,0,0,0,0,0,0,0,0,0,0,0,0,0,0,0,0,0,0,0,0,0,0,0,0,0,0,0,0,0,0,0,-6.6984,-6.6985,0,-6.7112,-6.7114,-6.7115,-6.7008,-6.7004,-6.6999,-6.6995,-6.7121,-6.7128,-6.7135,0,0,0,0,0,0,0,0,0,0,0,0,0,-6.664,-6.6647,-6.6984,-6.6985,-6.6987,-6.7112,-6.7114,-6.7116,-6.7009,-6.7004,-6.6998,-6.6993,-6.7118,-6.7127,-6.7136,0,0,0,0,0,0,0,0,0,0,0,0,0,-6.6781,-6.6649,-6.6983,-6.6949,-6.6947,-6.7112,-6.7114,-6.7116,-6.701,-6.7004,-6.6997,-6.6991,-6.7115,-6.7126,-6.7137,-6.734,0,0,-6.7172,-6.7176,0,0,0,0,0,0,0,0,-6.6773,-6.6794,-6.6953,-6.6952,-6.695,-6.7038,-6.7038,-6.7191,-6.7012,-6.6986,-6.6995,-6.6987,-6.7098,-6.711,-6.7149,-6.7346,-6.7352,-6.7173,-6.7179,-6.7184,-6.7187,0,0,0,0,0,0,0,-6.6764,-6.6788,-6.7034,-6.6955,-6.6954,-6.6925,-6.6938,-6.7067,-6.7078,-6.6988,-6.698,-6.6997,-6.7096,-6.7138,-6.7151,-6.7353,-6.7172,-6.7182,-6.7189,-6.7194,-6.7723,-6.773,0,0,0,0,0,0,-6.6758,-6.678,-6.703,-6.7038,-6.6844,-6.6937,-6.6951,-6.7016,-6.7076,-6.7079,-6.7003,-6.6992,-6.7122,-6.7138,-6.7155,-6.7397,-6.7184,-6.7195,-6.7201,-6.7716,-6.7725,-6.7733,0,0,0,0,0,0,-6.6751,-6.6782,-6.7025,-6.6907,-6.6936,-6.695,-6.7024,-6.7022,-6.7064,-6.7088,-6.7088,-6.7045,-6.7118,-6.7139,-6.7295,-6.7399,-6.72,-6.721,-6.7707,-6.7719,-6.7729,-6.7882,0,0,0,0,0,0,-6.6742,-6.678,-6.6859,-6.691,-6.6943,-6.7166,-6.703,-6.703,-6.7085,-6.7072,-6.7127,-6.713,-6.7114,-6.7279,-6.7307,-6.7411,-6.7219,-6.7698,-6.7712,-6.7725,-6.7868,-6.7897,-6.7922,0,0,0,0,0,-6.673,-6.6895,-6.6863,-6.6894,-6.7042,-6.7172,-6.7191,-6.7171,-6.7094,-6.7172,-6.7187,-6.7128,-6.7384,-6.7296,-6.7326,-6.7436,-6.7691,-6.7708,-6.7724,-6.7855,-6.7891,-6.7921,0,0,0,0,0,0,-6.6853,-6.6901,-6.6866,-6.7054,-6.711,-6.7154,-6.7252,-6.7209,-6.7287,-6.7271,-6.7242,-6.7255,-6.742,-6.7443,-6.7345,-6.7635,-6.7525,-6.7548,-6.7614,-6.7648,-6.7675,-6.7666,-6.7228,0,0,0,0,0,-6.6903,-6.7006,-6.7042,-6.7203,-6.7234,-6.7239,-6.7294,-6.7275,-6.7331,-6.7353,-6.738,-6.7435,-6.7527,-6.7589,-6.7675,-6.787,-6.788,-6.796,-6.7987,-6.801,-6.803,-6.8134,-6.817,-6.7787,-6.7787,-6.7786,0,0,-6.7005,-6.7044,-6.7111,-6.7229,-6.727,-6.7377,-6.7259,-6.7376,-6.7454,-6.737,-6.752,-6.7542,-6.7601,-6.7778,-6.7857,-6.7802,-6.8138,-6.8031,-6.8048,-6.8056,-6.8155,-6.8191,-6.8224,-6.7798,-6.7796,-6.7794,0,0,-6.7246,-6.7287,-6.7426,-6.747,-6.7535,-6.7537,-6.7571,-6.7622,-6.7633,-6.7784,-6.7723,-6.7814,-6.7974,-6.8019,-6.8063,-6.8322,-6.827,-6.835,-6.8492,-6.8594,-6.8624,-6.8651,-6.8743,-6.8776,-6.837,-6.8371,-6.8371,0,-6.7364,-6.7524,-6.7502,-6.7625,-6.7678,-6.7609,-6.7749,-6.7792,-6.7881,-6.7919,-6.7857,-6.8057,-6.8092,-6.8278,-6.8341,-6.8379,-6.8415,-6.8344,-6.8622,-6.8648,-6.8673,-6.876,-6.8795,-6.838,-6.8379,-6.8378,-6.8377,0,-6.7666,-6.7778,-6.7882,-6.7973,-6.8037,-6.8168,-6.8164,-6.8232,-6.8207,-6.8215,-6.8368,-6.8408,-6.8501,-6.8544,-6.8519,-6.8727,-6.8691,-6.8626,-6.8515,-6.8719,-6.8801,-6.8834,-6.8394,-6.839,-6.8387,-6.8385,0,0,-6.7989,-6.8066,-6.8104,-6.8145,-6.8211,-6.8296,-6.8422,-6.8516,-6.8575,-6.8638,-6.8743,-6.888,-6.8821,-6.8871,-6.8851,-6.894,-6.9142,-6.8864,-6.8865,-6.8914,-6.9373,-6.9422,-6.9461,-6.9109,-6.9115,-6.912,-6.9368,0,-6.8232,-6.8455,-6.8439,-6.8649,-6.8751,-6.8687,-6.8797,-6.8849,-6.886,-6.8946,-6.8957,-6.9055,-6.897,-6.8999,-6.9085,-6.91,-6.9234,-6.9082,-6.9204,-6.9209,-6.9192,-6.9503,-6.9555,-6.9788,-6.94,-6.9405,-6.9409,0,-6.8547,-6.8624,-6.8844,-6.8896,-6.8938,-6.9038,-6.9122,-6.9206,-6.9263,-6.9264,-6.9321,-6.9286,-6.9411,-6.9297,-6.9469,-6.9366,-6.9415,-6.943,-6.9438,-6.9449,-6.9322,-6.9522,-6.9861,-6.9896,-6.9459,-6.9455,-6.9451,0,-6.876,-6.8918,-6.907,-6.9107,-6.917,-6.9242,-6.9271,-6.9322,-6.9379,-6.9452,-6.9489,-6.9575,-6.9622,-6.9688,-6.9677,-6.9595,-6.9852,-6.9737,-6.9856,-6.9856,-6.9913,-6.991,-7.0264,-6.9945,-6.9944,-6.9944,-6.9943,0,-6.9034,-6.9171,-6.9167,-6.9261,-6.9412,-6.9392,-6.9541,-6.9562,-6.9608,-6.9703,-6.9652,-6.9742,-6.9721,-6.981,-6.9801,-6.9945,-6.9966,-6.997,-6.9966,-6.9975,-6.9975,-7.0007,-6.999,-6.9953,-6.9951,-6.9949,-6.9947,0,-6.9297,-6.93,-6.9462,-6.951,-6.9525,-6.9635,-6.9674,-6.9762,-6.9769,-6.989,-6.9917,-6.9928,-7.003,-7.0025,-7.014,-7.0134,-7.0311,-7.0288,-7.0293,-7.0288,-7.0407,-7.0396,-7.0795,-7.0846,-7.0494,-7.0497,-7.05,0,-6.9472,-6.9576,-6.9636,-6.9697,-6.9732,-6.9831,-6.989,-6.9873,-6.9936,-7.0009,-7.0088,-7.0186,-7.0263,-7.0429,-7.0446,-7.0533,-7.0512,-7.0646,-7.0524,-7.053,-7.0514,-7.0508,-7.0518,-7.0669,-7.0673,-7.0676,-7.0679,0,-6.9782,-6.9778,-6.9866,-6.9956,-7.0028,-7.0096,-7.0159,-7.0212,-7.0201,-7.0274,-7.0379,-7.044,-7.0558,-7.0656,-7.074,-7.0767,-7.0722,-7.0717,-7.0749,-7.0759,-7.0758,-7.0761,-7.0358,-7.0708,-7.0705,-7.0703,-7.0701,-7.07,-7.0006,-7.0096,-7.0153,-7.0252,-7.0298,-7.0358,-7.0443,-7.0462,-7.055,-7.0647,-7.063,-7.0748,-7.0801,-7.0909,-7.0945,-7.1036,-7.0988,-7.1034,-7.1046,-7.1058,-7.1072,-7.0744,-7.1051,-7.105,-7.1049,-7.1048,-7.1048,0,-7.0313,-7.0347,-7.0439,-7.053,-7.0608,-7.056,-7.0627,-7.0695,-7.08,-7.0855,-7.0933,-7.1053,-7.1147,-7.1172,-7.1262,-7.133,-7.1311,-7.1354,-7.1349,-7.1356,-7.1109,-7.1073,-7.1368,-7.1368,-7.1368,-7.1368,-7.1368,-7.1368,-7.0483,-7.0633,-7.0636,-7.0808,-7.0839,-7.0956,-7.0998,-7.1053,-7.1096,-7.1234,-7.1313,-7.1329,-7.1372,-7.1465,-7.1549,-7.1553,-7.1589,-7.164,-7.1637,-7.1406,-7.1374,-7.1343,-7.1308,-7.1648,-7.1649,-7.1876,-7.1878,-7.188]}]]